RYR69LP EPMO-LEPA

Flight info

Callsign RYR69LP
Flight time N/A
Altitude 38000
Route SOXER N869 TOMTI DCT LEGAZ DCT ELMEK DCT RUDAP P31 DOSEL M736 MANAL DCT KRO DCT SIO DCT BALSI DCT RETNO DCT TUPOX DCT MTG DCT RIXOT
Aircraft B738/M-SDE2E3FGHIRWXY/LB1

Departure

Time 2026-04-10 12:55
Airport Warsaw Modlin Airport (EPMO)

Arrival

Time N/A
Airport Palma de Mallorca Airport (LEPA)
Time Latitude Longitude Altitude Speed Heading
2026-04-10 12:39 52.44748 20.65261 337 ft 0 kts 206°
2026-04-10 12:48 52.44757 20.65268 332 ft 2 kts 200°
2026-04-10 12:48 52.44774 20.65275 335 ft 3 kts 169°
2026-04-10 12:48 52.44788 20.65265 333 ft 3 kts 110°
2026-04-10 12:48 52.44790 20.65246 333 ft 1 kts 81°
2026-04-10 12:49 52.44789 20.65240 333 ft 0 kts 81°
2026-04-10 12:51 52.44794 20.65289 332 ft 13 kts 82°
2026-04-10 12:51 52.44816 20.65522 337 ft 27 kts 79°
2026-04-10 12:51 52.44842 20.65824 334 ft 26 kts 81°
2026-04-10 12:52 52.44871 20.66129 337 ft 29 kts 81°
2026-04-10 12:52 52.44900 20.66441 337 ft 27 kts 81°
2026-04-10 12:52 52.44927 20.66734 336 ft 25 kts 81°
2026-04-10 12:52 52.44953 20.67008 333 ft 23 kts 78°
2026-04-10 12:53 52.45091 20.67059 334 ft 23 kts 351°
2026-04-10 12:53 52.45242 20.67005 337 ft 22 kts 348°
2026-04-10 12:53 52.45289 20.66960 337 ft 5 kts 262°
2026-04-10 12:53 52.45284 20.66912 338 ft 4 kts 261°
2026-04-10 12:54 52.45279 20.66852 335 ft 8 kts 261°
2026-04-10 12:54 52.45253 20.66566 333 ft 58 kts 261°
2026-04-10 12:54 52.45154 20.65521 339 ft 125 kts 261°
2026-04-10 12:54 52.45000 20.63805 481 ft 167 kts 263°
2026-04-10 12:55 52.44845 20.61927 1287 ft 172 kts 264°
2026-04-10 12:55 52.44704 20.59957 2139 ft 175 kts 264°
2026-04-10 12:55 52.44537 20.57872 2686 ft 196 kts 262°
2026-04-10 12:55 52.44342 20.55594 3233 ft 212 kts 263°
2026-04-10 12:56 52.44093 20.53060 3488 ft 240 kts 255°
2026-04-10 12:56 52.43475 20.50335 3764 ft 270 kts 242°
2026-04-10 12:56 52.42213 20.47853 4055 ft 299 kts 223°
2026-04-10 12:56 52.40614 20.45474 4503 ft 318 kts 221°
2026-04-10 12:57 52.38931 20.43051 5320 ft 324 kts 221°
2026-04-10 12:57 52.37248 20.40644 6262 ft 327 kts 220°
2026-04-10 12:57 52.35522 20.38172 7112 ft 331 kts 220°
2026-04-10 12:57 52.33775 20.35664 7869 ft 337 kts 220°
2026-04-10 12:58 52.32001 20.33110 8675 ft 342 kts 220°
2026-04-10 12:58 52.30201 20.30517 9476 ft 347 kts 220°
2026-04-10 12:58 52.28378 20.27888 10240 ft 353 kts 220°
2026-04-10 12:58 52.26692 20.24922 10937 ft 359 kts 233°
2026-04-10 12:59 52.25823 20.22605 11432 ft 363 kts 242°
2026-04-10 12:59 52.24850 20.18767 12166 ft 368 kts 248°
2026-04-10 12:59 52.23939 20.14832 12872 ft 373 kts 248°
2026-04-10 12:59 52.22712 20.09535 13809 ft 379 kts 248°
2026-04-10 13:00 52.22075 20.06808 14251 ft 382 kts 248°
2026-04-10 13:00 52.21129 20.02782 14900 ft 385 kts 248°
2026-04-10 13:00 52.20162 19.98696 15558 ft 388 kts 247°
2026-04-10 13:00 52.19175 19.94556 16194 ft 392 kts 247°
2026-04-10 13:01 52.18179 19.90392 16826 ft 396 kts 247°
2026-04-10 13:01 52.17169 19.86185 17458 ft 400 kts 247°
2026-04-10 13:01 52.16157 19.81983 18068 ft 404 kts 247°
2026-04-10 13:01 52.15126 19.77712 18641 ft 407 kts 246°
2026-04-10 13:02 52.14083 19.73399 19191 ft 410 kts 246°
2026-04-10 13:02 52.13028 19.69048 19751 ft 413 kts 246°
2026-04-10 13:02 52.11965 19.64670 20293 ft 416 kts 246°
2026-04-10 13:02 52.10896 19.60274 20804 ft 419 kts 246°
2026-04-10 13:03 52.09830 19.55901 21331 ft 422 kts 246°
2026-04-10 13:03 52.08739 19.51438 21842 ft 425 kts 246°
2026-04-10 13:03 52.07640 19.46947 22347 ft 428 kts 246°
2026-04-10 13:03 52.06531 19.42423 22841 ft 431 kts 246°
2026-04-10 13:04 52.05414 19.37880 23342 ft 434 kts 246°
2026-04-10 13:04 52.04300 19.33357 23806 ft 436 kts 246°
2026-04-10 13:04 52.03170 19.28776 24215 ft 438 kts 247°
2026-04-10 13:04 52.02034 19.24179 24642 ft 439 kts 248°
2026-04-10 13:05 52.00892 19.19569 25071 ft 440 kts 248°
2026-04-10 13:05 51.99744 19.14943 25480 ft 441 kts 249°